Previsão horária em Cayo Guillermo

Hoje, 25 Julho, Domingo

Tempo Temperatura Precipitação Vento Pressão Humidade
00:00 +27°C° 0.1 mm 4 m/s 760 mmHg 91%
01:00 +27°C° 0.1 mm 4 m/s 760 mmHg 92%
02:00 +27°C° 0.1 mm 4 m/s 759 mmHg 93%
03:00 +26°C° 0.1 mm 4 m/s 759 mmHg 93%
04:00 +26°C° 0.1 mm 4 m/s 759 mmHg 94%
05:00 +27°C° 0 mm 4 m/s 759 mmHg 92%
06:00 +27°C° 0 mm 4 m/s 759 mmHg 90%
07:00 +28°C° 0 mm 4 m/s 760 mmHg 89%
08:00 +29°C° 0 mm 3 m/s 760 mmHg 79%
09:00 +31°C° 0 mm 3 m/s 760 mmHg 70%
10:00 +34°C° 0 mm 3 m/s 760 mmHg 61%
11:00 +34°C° 0.1 mm 3 m/s 760 mmHg 60%
12:00 +34°C° 0.1 mm 3 m/s 760 mmHg 59%
13:00 +35°C° 0.1 mm 4 m/s 760 mmHg 58%
14:00 +34°C° 0.3 mm 4 m/s 759 mmHg 59%
15:00 +34°C° 0.3 mm 4 m/s 759 mmHg 60%
16:00 +34°C° 0.3 mm 4 m/s 759 mmHg 61%
17:00 +33°C° 0 mm 5 m/s 759 mmHg 66%
18:00 +32°C° 0 mm 5 m/s 759 mmHg 71%
19:00 +29°C° 0 mm 6 m/s 759 mmHg 76%
20:00 +29°C° 0.5 mm 6 m/s 759 mmHg 80%
21:00 +28°C° 0.5 mm 6 m/s 760 mmHg 84%
22:00 +27°C° 0.5 mm 6 m/s 760 mmHg 88%
23:00 +27°C° 0.4 mm 6 m/s 760 mmHg 89%

Amanhã, 26 Julho, Segunda-feira

Tempo Temperatura Precipitação Vento Pressão Humidade
00:00 +27°C° 0.4 mm 5 m/s 760 mmHg 91%
01:00 +27°C° 0.4 mm 5 m/s 760 mmHg 92%
02:00 +26°C° 0.2 mm 5 m/s 759 mmHg 92%
03:00 +26°C° 0.2 mm 4 m/s 759 mmHg 93%
04:00 +26°C° 0.2 mm 4 m/s 759 mmHg 93%
05:00 +26°C° 0 mm 4 m/s 759 mmHg 91%
06:00 +27°C° 0 mm 3 m/s 759 mmHg 89%
07:00 +27°C° 0 mm 3 m/s 760 mmHg 87%
08:00 +29°C° 0 mm 3 m/s 760 mmHg 78%
09:00 +31°C° 0 mm 2 m/s 760 mmHg 70%
10:00 +34°C° 0 mm 2 m/s 761 mmHg 61%
11:00 +34°C° 0.1 mm 2 m/s 760 mmHg 60%
12:00 +35°C° 0.1 mm 2 m/s 760 mmHg 59%
13:00 +35°C° 0.1 mm 3 m/s 760 mmHg 57%
14:00 +34°C° 0.6 mm 3 m/s 760 mmHg 60%
15:00 +34°C° 0.6 mm 3 m/s 760 mmHg 62%
16:00 +33°C° 0.6 mm 4 m/s 759 mmHg 64%
17:00 +32°C° 1.5 mm 4 m/s 760 mmHg 69%
18:00 +30°C° 1.5 mm 4 m/s 760 mmHg 74%
19:00 +29°C° 1.5 mm 4 m/s 760 mmHg 79%
20:00 +28°C° 0.2 mm 4 m/s 760 mmHg 81%
21:00 +28°C° 0.2 mm 4 m/s 761 mmHg 84%
22:00 +27°C° 0.2 mm 4 m/s 761 mmHg 86%
23:00 +27°C° 0.3 mm 4 m/s 761 mmHg 86%

Depois de amanhã, 27 Julho, Terça-feira

Tempo Temperatura Precipitação Vento Pressão Humidade
00:00 +26°C° 0.3 mm 4 m/s 761 mmHg 86%
01:00 +26°C° 0.3 mm 3 m/s 761 mmHg 86%
02:00 +26°C° 0.2 mm 3 m/s 761 mmHg 86%
03:00 +26°C° 0.2 mm 3 m/s 761 mmHg 86%
04:00 +25°C° 0.2 mm 3 m/s 761 mmHg 87%
05:00 +26°C° 0 mm 2 m/s 761 mmHg 85%
06:00 +26°C° 0 mm 2 m/s 761 mmHg 82%
07:00 +27°C° 0 mm 1 m/s 762 mmHg 80%
08:00 +29°C° 0 mm 1 m/s 762 mmHg 71%
09:00 +31°C° 0 mm 1 m/s 762 mmHg 62%
10:00 +31°C° 0 mm 0 m/s 762 mmHg 53%
11:00 +34°C° 0 mm 1 m/s 762 mmHg 52%
12:00 +34°C° 0 mm 1 m/s 762 mmHg 50%
13:00 +35°C° 0 mm 1 m/s 762 mmHg 48%
14:00 +35°C° 0 mm 2 m/s 762 mmHg 52%
15:00 +34°C° 0 mm 3 m/s 761 mmHg 56%
16:00 +34°C° 0 mm 3 m/s 761 mmHg 59%
17:00 +32°C° 0 mm 4 m/s 761 mmHg 66%
18:00 +30°C° 0 mm 4 m/s 761 mmHg 72%
19:00 +29°C° 0 mm 4 m/s 761 mmHg 79%
20:00 +29°C° 0 mm 5 m/s 762 mmHg 81%
21:00 +29°C° 0 mm 5 m/s 762 mmHg 84%
22:00 +28°C° 0 mm 5 m/s 762 mmHg 86%
23:00 +28°C° 0.2 mm 5 m/s 762 mmHg 88%

28 Julho, Quarta-feira

Tempo Temperatura Precipitação Vento Pressão Humidade
00:00 +27°C° 0.2 mm 4 m/s 762 mmHg 89%
01:00 +27°C° 0.2 mm 4 m/s 761 mmHg 90%
02:00 +27°C° 0 mm 3 m/s 761 mmHg 90%
03:00 +27°C° 0 mm 3 m/s 761 mmHg 90%
04:00 +27°C° 0 mm 3 m/s 760 mmHg 90%
05:00 +27°C° 0 mm 3 m/s 761 mmHg 89%
06:00 +27°C° 0 mm 3 m/s 761 mmHg 87%
07:00 +28°C° 0 mm 3 m/s 761 mmHg 86%
08:00 +30°C° 0 mm 3 m/s 762 mmHg 78%
09:00 +31°C° 0 mm 3 m/s 762 mmHg 70%
10:00 +34°C° 0 mm 3 m/s 762 mmHg 61%
11:00 +34°C° 0 mm 3 m/s 762 mmHg 59%
12:00 +35°C° 0 mm 3 m/s 762 mmHg 57%
13:00 +35°C° 0 mm 3 m/s 762 mmHg 55%
14:00 +35°C° 0 mm 4 m/s 761 mmHg 57%
15:00 +35°C° 0 mm 4 m/s 761 mmHg 58%
16:00 +34°C° 0 mm 4 m/s 761 mmHg 60%
17:00 +33°C° 0 mm 4 m/s 761 mmHg 67%
18:00 +32°C° 0 mm 5 m/s 761 mmHg 73%
19:00 +29°C° 0 mm 5 m/s 761 mmHg 80%
20:00 +29°C° 0 mm 5 m/s 761 mmHg 81%
21:00 +28°C° 0 mm 5 m/s 762 mmHg 83%
22:00 +28°C° 0 mm 6 m/s 762 mmHg 84%
23:00 +28°C° 0 mm 6 m/s 761 mmHg 86%

29 Julho, Quinta-feira

Tempo Temperatura Precipitação Vento Pressão Humidade
00:00 +27°C° 0 mm 6 m/s 761 mmHg 87%
01:00 +27°C° 0 mm 6 m/s 761 mmHg 89%
02:00 +27°C° 0 mm 6 m/s 761 mmHg 90%
03:00 +27°C° 0 mm 6 m/s 761 mmHg 90%
04:00 +27°C° 0 mm 6 m/s 761 mmHg 91%
05:00 +27°C° 0 mm 6 m/s 761 mmHg 88%
06:00 +28°C° 0 mm 6 m/s 761 mmHg 85%
07:00 +28°C° 0 mm 5 m/s 762 mmHg 83%
08:00 +30°C° 0 mm 5 m/s 762 mmHg 75%
09:00 +32°C° 0 mm 5 m/s 762 mmHg 68%
10:00 +34°C° 0 mm 5 m/s 762 mmHg 60%
11:00 +35°C° 0 mm 6 m/s 762 mmHg 58%
12:00 +35°C° 0 mm 6 m/s 762 mmHg 56%
13:00 +36°C° 0 mm 6 m/s 762 mmHg 55%
14:00 +35°C° 0 mm 6 m/s 761 mmHg 55%
15:00 +35°C° 0 mm 6 m/s 761 mmHg 56%
16:00 +34°C° 0 mm 6 m/s 761 mmHg 56%
17:00 +33°C° 0 mm 6 m/s 761 mmHg 64%
18:00 +32°C° 0 mm 6 m/s 761 mmHg 72%
19:00 +29°C° 0 mm 6 m/s 761 mmHg 80%
20:00 +29°C° 0 mm 7 m/s 762 mmHg 81%
21:00 +29°C° 0 mm 7 m/s 762 mmHg 83%
22:00 +29°C° 0 mm 7 m/s 762 mmHg 84%
23:00 +28°C° 0 mm 7 m/s 762 mmHg 84%

30 Julho, Sexta-feira

Tempo Temperatura Precipitação Vento Pressão Humidade
00:00 +28°C° 0 mm 6 m/s 762 mmHg 84%
01:00 +27°C° 0 mm 6 m/s 762 mmHg 85%
02:00 +27°C° 0.1 mm 6 m/s 761 mmHg 86%
03:00 +27°C° 0.1 mm 6 m/s 761 mmHg 87%
04:00 +26°C° 0.1 mm 6 m/s 761 mmHg 89%
05:00 +27°C° 0 mm 6 m/s 761 mmHg 87%
06:00 +28°C° 0 mm 5 m/s 762 mmHg 85%
07:00 +28°C° 0 mm 5 m/s 762 mmHg 84%
08:00 +30°C° 0 mm 5 m/s 762 mmHg 76%
09:00 +32°C° 0 mm 5 m/s 762 mmHg 68%
10:00 +34°C° 0 mm 5 m/s 763 mmHg 61%
11:00 +34°C° 0 mm 5 m/s 762 mmHg 60%
12:00 +34°C° 0 mm 5 m/s 762 mmHg 59%
13:00 +35°C° 0 mm 6 m/s 762 mmHg 58%
14:00 +34°C° 0 mm 6 m/s 762 mmHg 59%
15:00 +34°C° 0 mm 6 m/s 762 mmHg 59%
16:00 +34°C° 0 mm 6 m/s 762 mmHg 59%
17:00 +33°C° 0.1 mm 6 m/s 762 mmHg 65%
18:00 +30°C° 0.1 mm 6 m/s 762 mmHg 72%
19:00 +29°C° 0.1 mm 6 m/s 762 mmHg 78%
20:00 +29°C° 0 mm 6 m/s 762 mmHg 81%
21:00 +28°C° 0 mm 6 m/s 763 mmHg 84%
22:00 +28°C° 0 mm 6 m/s 763 mmHg 87%
23:00 +28°C° 0 mm 6 m/s 763 mmHg 89%
Mostrar mais

Necessitamos do seu Consentimento

A Meteoprog e os seus Fornecedores de Serviços podem armazenar e aceder a dados pessoais como cookies, identificadores do dispositivo ou outras tecnologias semelhantes existentes no seu dispositivo e processar estes dados para personalizar conteúdos e anúncios, assim como funcionalidades nas redes sociais e análise de tráfego.

  • Armazenar e/ou aceder a informações no seu dispositivo

    Os cookies, identificadores do dispositivo ou outras informações podem ser armazenados ou acedidos no seu dispositivo, para os fins acima indicados.

  • Anúncios e conteúdos personalizados, medição de anúncios e conteúdos, dados sobre o público-alvo e desenvolvimento de produtos

    Os anúncios e os conteúdos podem ser personalizados com base num perfil. Podem ser adicionados dados adicionais para uma maior personalização dos anúncios e dos conteúdos. A eficácia dos anúncios e dos conteúdos pode ser medida. Podem ser obtidas informações sobre o público que visualizou os anúncios e os conteúdos. Estes dados podem ser usados para desenvolver ou melhorar sistemas, softwares ou a experiência do utilizador.

Ao clicar em "Eu concordo”, permitirá o uso de cookies, identificadores do dispositivo e web beacons mencionados ou outras tecnologias semelhantes. As configurações do navegador do seu dispositivo podem ser alteradas.

Para certos fins, podem ser invocados interesses legítimos ao invés de consentimento. Pode ler mais informação sobre este assunto na nossa Política de Privacidade e Cookies.